When you browse on this site, cookies collect data to enhance your experience and personalize the content and advertising you see.
Visit our Privacy Policy to learn more. By continuing to use the site, you agree to this use of cookies and data.

Hourly Weather Zatyshne

Today, 10 July, Friday

Time Temperature Precipitation Wind Pressure Humidity
00:00 +16°C° 0 mm 3 mps 752 mmHg 81%
01:00 +16°C° 0 mm 2 mps 752 mmHg 83%
02:00 +16°C° 0 mm 2 mps 752 mmHg 84%
03:00 +16°C° 0 mm 2 mps 752 mmHg 84%
04:00 +16°C° 0 mm 1 mps 752 mmHg 83%
05:00 +16°C° 0 mm 1 mps 753 mmHg 83%
06:00 +19°C° 0 mm 1 mps 753 mmHg 75%
07:00 +21°C° 0 mm 1 mps 753 mmHg 67%
08:00 +23°C° 0 mm 1 mps 753 mmHg 57%
09:00 +24°C° 0 mm 2 mps 753 mmHg 54%
10:00 +25°C° 0 mm 2 mps 753 mmHg 50%
11:00 +26°C° 0 mm 3 mps 753 mmHg 47%
12:00 +26°C° 0 mm 3 mps 753 mmHg 46%
13:00 +27°C° 0 mm 3 mps 752 mmHg 46%
14:00 +27°C° 0 mm 3 mps 752 mmHg 45%
15:00 +27°C° 0 mm 3 mps 752 mmHg 47%
16:00 +27°C° 0 mm 3 mps 752 mmHg 48%
17:00 +26°C° 0 mm 3 mps 752 mmHg 49%
18:00 +25°C° 0 mm 2 mps 752 mmHg 53%
19:00 +23°C° 0 mm 2 mps 752 mmHg 57%
20:00 +21°C° 0 mm 2 mps 753 mmHg 61%
21:00 +20°C° 0 mm 2 mps 753 mmHg 62%
22:00 +20°C° 0 mm 2 mps 753 mmHg 63%
23:00 +19°C° 0 mm 2 mps 753 mmHg 63%

Tomorrow, 11 July, Saturday

Time Temperature Precipitation Wind Pressure Humidity
00:00 +19°C° 0 mm 2 mps 753 mmHg 65%
01:00 +18°C° 0 mm 2 mps 753 mmHg 66%
02:00 +18°C° 0 mm 2 mps 753 mmHg 68%
03:00 +18°C° 0 mm 2 mps 753 mmHg 69%
04:00 +18°C° 0 mm 2 mps 753 mmHg 70%
05:00 +17°C° 0 mm 2 mps 753 mmHg 71%
06:00 +19°C° 0 mm 2 mps 753 mmHg 65%
07:00 +21°C° 0 mm 2 mps 753 mmHg 59%
08:00 +24°C° 0 mm 2 mps 753 mmHg 53%
09:00 +25°C° 0 mm 2 mps 753 mmHg 49%
10:00 +27°C° 0 mm 3 mps 753 mmHg 46%
11:00 +28°C° 0 mm 3 mps 753 mmHg 42%
12:00 +28°C° 0 mm 3 mps 752 mmHg 40%
13:00 +29°C° 0 mm 3 mps 752 mmHg 39%
14:00 +29°C° 0 mm 3 mps 751 mmHg 38%
15:00 +29°C° 0 mm 3 mps 751 mmHg 40%
16:00 +29°C° 0 mm 4 mps 751 mmHg 41%
17:00 +29°C° 0 mm 4 mps 750 mmHg 43%
18:00 +27°C° 0 mm 3 mps 750 mmHg 48%
19:00 +25°C° 0 mm 3 mps 750 mmHg 52%
20:00 +22°C° 0 mm 3 mps 750 mmHg 57%
21:00 +21°C° 0 mm 2 mps 750 mmHg 59%
22:00 +20°C° 0 mm 2 mps 750 mmHg 61%
23:00 +20°C° 0 mm 2 mps 750 mmHg 63%

Day after tomorrow, 12 July, Sunday

Time Temperature Precipitation Wind Pressure Humidity
00:00 +19°C° 0 mm 2 mps 750 mmHg 64%
01:00 +19°C° 0 mm 3 mps 750 mmHg 66%
02:00 +18°C° 0 mm 3 mps 749 mmHg 68%
03:00 +18°C° 0 mm 3 mps 749 mmHg 70%
04:00 +18°C° 0 mm 3 mps 749 mmHg 73%
05:00 +18°C° 0 mm 3 mps 749 mmHg 76%
06:00 +20°C° 0 mm 3 mps 749 mmHg 70%
07:00 +22°C° 0 mm 3 mps 749 mmHg 64%
08:00 +25°C° 0 mm 4 mps 749 mmHg 58%
09:00 +26°C° 0 mm 4 mps 748 mmHg 53%
10:00 +28°C° 0 mm 4 mps 748 mmHg 48%
11:00 +29°C° 0 mm 4 mps 748 mmHg 43%
12:00 +30°C° 0 mm 3 mps 747 mmHg 42%
13:00 +30°C° 0 mm 3 mps 747 mmHg 42%
14:00 +31°C° 0 mm 3 mps 747 mmHg 41%
15:00 +31°C° 0 mm 3 mps 746 mmHg 44%
16:00 +30°C° 0 mm 3 mps 746 mmHg 47%
17:00 +30°C° 0 mm 3 mps 745 mmHg 50%
18:00 +28°C° 0.2 mm 3 mps 745 mmHg 56%
19:00 +26°C° 0.2 mm 3 mps 745 mmHg 61%
20:00 +25°C° 0.2 mm 3 mps 745 mmHg 67%
21:00 +24°C° 1 mm 3 mps 744 mmHg 71%
22:00 +22°C° 1 mm 3 mps 744 mmHg 75%
23:00 +21°C° 1 mm 3 mps 744 mmHg 79%

13 July, Monday

Time Temperature Precipitation Wind Pressure Humidity
00:00 +21°C° 1.7 mm 3 mps 744 mmHg 83%
01:00 +20°C° 1.7 mm 3 mps 743 mmHg 86%
02:00 +20°C° 1.7 mm 3 mps 743 mmHg 90%
03:00 +20°C° 0.3 mm 3 mps 743 mmHg 90%
04:00 +20°C° 0.3 mm 3 mps 743 mmHg 90%
05:00 +20°C° 0.3 mm 3 mps 742 mmHg 89%
06:00 +21°C° 0.2 mm 3 mps 743 mmHg 86%
07:00 +21°C° 0.2 mm 4 mps 743 mmHg 83%
08:00 +22°C° 0.2 mm 5 mps 743 mmHg 81%
09:00 +22°C° 0 mm 5 mps 743 mmHg 79%
10:00 +22°C° 0 mm 6 mps 743 mmHg 77%
11:00 +23°C° 0 mm 7 mps 743 mmHg 75%
12:00 +23°C° 0 mm 7 mps 742 mmHg 74%
13:00 +23°C° 0 mm 7 mps 742 mmHg 73%
14:00 +23°C° 0 mm 7 mps 742 mmHg 72%
15:00 +23°C° 0 mm 7 mps 742 mmHg 73%
16:00 +22°C° 0 mm 7 mps 742 mmHg 73%
17:00 +21°C° 0 mm 8 mps 742 mmHg 73%
18:00 +20°C° 0 mm 7 mps 742 mmHg 76%
19:00 +19°C° 0 mm 6 mps 743 mmHg 78%
20:00 +16°C° 0 mm 6 mps 743 mmHg 80%
21:00 +16°C° 0 mm 6 mps 743 mmHg 80%
22:00 +16°C° 0 mm 5 mps 743 mmHg 80%
23:00 +16°C° 0 mm 5 mps 743 mmHg 80%

14 July, Tuesday

Time Temperature Precipitation Wind Pressure Humidity
00:00 +16°C° 0 mm 5 mps 743 mmHg 80%
01:00 +16°C° 0 mm 5 mps 743 mmHg 80%
02:00 +16°C° 0 mm 5 mps 743 mmHg 80%
03:00 +16°C° 0.1 mm 5 mps 743 mmHg 80%
04:00 +16°C° 0.1 mm 5 mps 743 mmHg 80%
05:00 +16°C° 0.1 mm 5 mps 743 mmHg 81%
06:00 +16°C° 0 mm 5 mps 743 mmHg 80%
07:00 +16°C° 0 mm 5 mps 744 mmHg 80%
08:00 +16°C° 0 mm 5 mps 744 mmHg 79%
09:00 +16°C° 0 mm 5 mps 744 mmHg 78%
10:00 +16°C° 0 mm 5 mps 744 mmHg 78%
11:00 +17°C° 0 mm 5 mps 745 mmHg 77%
12:00 +17°C° 0.1 mm 5 mps 745 mmHg 74%
13:00 +19°C° 0.1 mm 5 mps 745 mmHg 72%
14:00 +19°C° 0.1 mm 6 mps 745 mmHg 69%
15:00 +19°C° 0 mm 6 mps 745 mmHg 67%
16:00 +20°C° 0 mm 6 mps 745 mmHg 65%
17:00 +20°C° 0 mm 6 mps 745 mmHg 63%
18:00 +19°C° 0 mm 5 mps 746 mmHg 68%
19:00 +18°C° 0 mm 4 mps 746 mmHg 73%
20:00 +16°C° 0 mm 2 mps 746 mmHg 78%
21:00 +16°C° 0 mm 3 mps 747 mmHg 80%
22:00 +14°C° 0 mm 3 mps 747 mmHg 81%
23:00 +14°C° 0 mm 3 mps 747 mmHg 83%

15 July, Wednesday

Time Temperature Precipitation Wind Pressure Humidity
00:00 +13°C° 0 mm 3 mps 747 mmHg 84%
01:00 +13°C° 0 mm 3 mps 747 mmHg 85%
02:00 +13°C° 0 mm 3 mps 747 mmHg 86%
03:00 +13°C° 0 mm 3 mps 748 mmHg 85%
04:00 +13°C° 0 mm 3 mps 748 mmHg 84%
05:00 +13°C° 0 mm 3 mps 748 mmHg 84%
06:00 +16°C° 0 mm 3 mps 748 mmHg 77%
07:00 +18°C° 0 mm 4 mps 749 mmHg 70%
08:00 +20°C° 0 mm 4 mps 749 mmHg 63%
09:00 +21°C° 0 mm 4 mps 749 mmHg 58%
10:00 +22°C° 0 mm 4 mps 749 mmHg 52%
11:00 +25°C° 0 mm 4 mps 749 mmHg 47%
12:00 +25°C° 0 mm 4 mps 749 mmHg 45%
13:00 +25°C° 0 mm 4 mps 749 mmHg 44%
14:00 +26°C° 0 mm 4 mps 749 mmHg 42%
15:00 +26°C° 0 mm 4 mps 749 mmHg 44%
16:00 +25°C° 0 mm 4 mps 749 mmHg 46%
17:00 +25°C° 0 mm 4 mps 749 mmHg 48%
18:00 +22°C° 0 mm 4 mps 749 mmHg 52%
19:00 +20°C° 0 mm 3 mps 749 mmHg 57%
20:00 +18°C° 0 mm 3 mps 750 mmHg 61%
21:00 +18°C° 0 mm 3 mps 750 mmHg 62%
22:00 +17°C° 0 mm 3 mps 750 mmHg 64%
23:00 +16°C° 0 mm 2 mps 750 mmHg 66%
Show more